Location: Daybis Observatory
(33.4273°N, 88.8061°W)
Time: 21:45:39
(UTC-05:00)

Daily predictions for brighter satellites

Satellite Brightness Start Highest point End
(mag) Time Altitude Azimuth Time Altitude Azimuth Time Altitude Azimuth
Cosmos 1242 Rocket 3.6 20:19:03 10° SSW 20:22:42 52° W 20:26:21 10° N
Meteor 2-4 Rocket 4.5 20:19:10 10° SSE 20:24:20 34° E 20:29:35 10° NNE
Cosmos 2098 Rocket 2.9 20:20:58 10° N 20:24:22 53° E 20:28:33 10° SSE
Cosmos 2333 Rocket 3.1 20:21:27 10° SW 20:26:59 56° WNW 20:32:32 10° NNE
Cosmos 2251 Rocket 3.5 20:22:57 10° S 20:28:11 67° ESE 20:33:29 10° NNE
Milstar 3 Cent rocket 3.1 20:25:29 10° W 20:34:27 52° SSW 20:39:27 11° ESE
deb Chang Zheng 4 4.1 20:30:33 10° NNE 20:34:39 38° E 20:38:42 10° SSE
CZ-2C R/B 1.8 20:36:24 12° SE 20:38:01 24° ENE 20:39:59 10° NNE
Cosmos 1844 Rocket 3.6 20:32:45 10° NNW 20:38:10 48° WSW 20:43:31 10° S
H-2A R/B 2.8 20:34:58 10° SSE 20:38:52 69° ENE 20:42:49 10° N
Cosmos 1844 4.2 20:34:37 10° NNW 20:40:21 65° WSW 20:46:03 10° S
ERS-1 Rocket 3.5 20:37:21 10° SE 20:42:03 43° ENE 20:46:48 10° N
BREEZE-M DEB (TANK) 3.2 20:33:59 10° SW 20:42:48 69° SE 20:45:40 10° ENE
Envisat 4.4 20:39:39 11° ESE 20:43:21 23° ENE 20:47:15 10° NNE
FENGYUN 3A 3.6 20:38:59 10° SSE 20:44:20 82° ENE 20:49:45 10° N
OAO 3 Copernicus 4.5 20:40:23 10° W 20:45:26 73° N 20:50:29 10° E
Cosmos 1975 4.3 20:42:08 10° NNW 20:45:51 37° W 20:49:33 10° SSW
Cosmos 1110 Rocket 4.4 20:43:02 10° N 20:48:10 49° ENE 20:52:39 13° SE
Cosmos 1606 Rocket 3.6 20:43:59 10° N 20:48:24 64° E 20:52:44 10° SSE
H-2A R/B 2.6 20:48:20 13° SE 20:51:50 42° ENE 20:55:53 10° N
Hubble Space Telescope 3.0 20:51:30 10° SW 20:53:36 14° SSW 20:55:43 10° S
ATLAS CENTAUR R/B 4.0 20:56:03 10° WSW 21:00:24 31° NW 21:04:52 10° N
Cosmos 1626 Rocket 4.4 20:57:46 16° SE 21:00:37 30° E 21:04:30 10° NNE
Cosmos 2237 Rocket 4.3 20:58:45 10° WSW 21:03:36 30° WNW 21:08:30 10° N
ATLAS 3B CENTAUR R/B 4.4 21:02:52 10° SW 21:05:37 14° S 21:09:25 10° SSE
SJ-11-01 4.3 21:02:11 14° SSE 21:06:12 69° ENE 21:10:50 10° N
GEOS 3 Rocket 3.9 21:02:56 13° SSE 21:07:43 66° WSW 21:12:56 10° NW
Atlas Centaur 2 3.2 21:02:45 10° SW 21:09:56 49° SSE 21:18:02 10° E
Cosmos 2278 Rocket 3.1 21:09:51 10° NNW 21:15:16 47° WSW 21:20:39 10° S
Cosmos 494 Rocket 4.4 21:12:28 10° SSW 21:17:32 63° WNW 21:22:36 10° N
Meteor 1-15 Rocket 4.3 21:12:55 10° N 21:18:27 61° E 21:22:12 21° SSE
PSLV R/B 3.4 21:15:17 10° WSW 21:18:48 80° NNW 21:22:22 10° ENE
USA 186 4.0 21:16:48 10° SSW 21:19:04 20° W 21:21:15 10° NW
Aureole 2 Rocket 2.7 21:15:03 10° SSW 21:19:10 83° WNW 21:22:56 10° NNE
Cosmos 2228 3.2 21:14:53 10° N 21:19:13 57° E 21:21:32 26° SSE
COSMOS 2455 3.2 21:14:39 10° S 21:20:10 40° ESE 21:25:43 10° NE
Cosmos 1939 Rocket 2.9 21:18:34 24° SSE 21:20:57 68° ENE 21:25:04 10° N
SPOT 5 2.8 21:26:56 31° SE 21:28:49 53° ENE 21:33:05 10° N
Cosmos 2369 Rocket 4.2 21:26:41 10° NNE 21:29:13 13° NE 21:31:20 11° ENE
SL-16 R/B 3.6 21:25:15 10° SW 21:30:32 41° WNW 21:35:52 10° N
ARGOS 4.4 21:29:23 22° E 21:31:06 25° ENE 21:35:28 10° NNE
Cosmos 1666 2.6 21:29:24 10° N 21:33:19 84° E 21:34:49 36° S
CZ-4 SHROUD 3.1 21:34:31 60° SE 21:34:56 71° ENE 21:38:05 10° N
Gbstr 26 Del rocket 4.5 21:28:19 10° NW 21:35:52 84° SW 21:40:41 28° SE
Tsikada Rocket 4.0 21:33:55 15° S 21:39:24 76° E 21:45:48 10° N
OTV 4 3.0 21:39:01 10° WSW 21:40:00 12° SW 21:40:00 12° SW
Geosat 4.4 21:36:52 10° NE 21:41:32 37° ESE 21:42:04 36° SE
Cosmos 1513 Rocket 4.5 21:38:00 10° N 21:44:19 85° W 21:48:21 23° S
DEBRIS 3.0 21:41:27 10° NW 21:45:12 37° NNE 21:45:19 37° NE
MetOp-B 4.1 21:49:01 38° SSE 21:51:02 71° ENE 21:56:23 10° N
SeaSat 1 2.4 21:50:09 41° SSE 21:51:55 89° ENE 21:56:52 10° NNW
Cosmos 1302 Rocket 4.0 21:48:11 10° NNW 21:53:26 78° WSW 21:55:30 38° S
Cosmos 2285 Rocket 4.4 21:48:02 10° NNW 21:54:13 59° WSW 21:58:06 24° S
Terra 3.6 21:56:19 17° ENE 21:56:22 17° ENE 21:59:22 10° NNE
Cosmos 1515 3.8 21:58:52 58° ENE 21:58:52 58° ENE 22:02:19 10° NNE
Cosmos 1603 4.1 21:53:42 10° SSW 21:59:15 64° WNW 22:04:50 10° NNE
CZ-4B R/B 3.5 21:55:33 10° NNE 22:00:39 83° WNW 22:03:36 27° SSW
APEX 4.1 22:01:50 10° NNW 22:06:08 62° WSW 22:07:37 43° S
Timation 1 Rocket 4.3 22:01:20 10° NNW 22:07:22 85° WSW 22:09:16 46° SSE
Cosmos 1825 Rocket 3.7 22:10:25 60° ENE 22:10:25 60° ENE 22:14:31 10° NNE
Cosmos 1461 2.8 22:07:01 10° NNW 22:11:08 81° NNE 22:11:08 81° NNE
Cosmos 1812 Rocket 3.8 22:15:08 10° NNW 22:19:27 61° W 22:19:55 57° SW
ATLAS 3B R/B 2.9 22:16:52 28° S 22:21:12 66° ESE 22:28:44 10° NE
Envisat 4.3 22:19:51 23° SW 22:22:06 34° W 22:26:42 10° NNW
USA 245 4.4 22:20:33 48° S 22:22:22 80° WSW 22:28:00 10° NNW
YAOGAN 6 3.4 22:24:55 50° WNW 22:24:55 50° WNW 22:28:04 10° NNW
Cosmos 1943 3.0 22:23:33 57° S 22:24:47 83° ESE 22:30:30 10° NNE
Cosmos 407 Rocket 3.8 22:27:23 51° ENE 22:27:23 51° ENE 22:31:45 10° NNE
Cosmos 1634 Rocket 3.9 22:20:48 10° N 22:26:57 71° E 22:27:54 61° SE
OAO 3 Copernicus 4.4 22:25:01 10° W 22:29:35 66° WSW 22:29:35 66° WSW
USA 234 3.2 22:30:35 55° SE 22:32:12 88° NE 22:38:49 10° NW
USA 81 4.0 22:32:46 10° N 22:38:03 78° W 22:38:24 74° SW
Cosmos 1943 Rocket 3.9 22:38:07 10° NNE 22:42:08 20° ENE 22:42:15 20° ENE
Cosmos 489 Rocket 4.3 22:42:47 70° S 22:43:33 82° ESE 22:49:56 10° NNE
CZ-4C R/B 4.4 22:51:16 48° NW 22:51:16 48° NW 22:54:28 10° NNW
Cosmos 2279 Rocket 4.0 22:46:31 10° N 22:52:42 66° E 22:52:42 66° E
USA 238 DEB 4.5 22:55:18 37° ENE 22:55:18 37° ENE 23:00:06 10° NE
Cosmos 1953 Rocket 4.5 22:55:36 46° NW 22:55:36 46° NW 22:59:10 10° N
H-2A R/B 2.3 22:59:58 61° N 22:59:58 61° N 23:04:06 10° NNW
Atlas Centaur 2 2.9 22:51:29 10° WSW 22:59:37 72° S 23:00:56 63° SE
Cosmos 2180 Rocket 4.5 23:02:11 10° N 23:08:09 72° ENE 23:08:09 72° ENE
ARGOS 4.3 23:10:54 34° WSW 23:11:07 34° W 23:16:02 10° NNW
Cosmos 2369 Rocket 2.4 23:08:13 10° NNW 23:13:08 66° NW 23:13:08 66° NW
Lacrosse 4 Rocket 3.7 23:31:19 22° NNW 23:31:19 22° NNW 23:33:27 10° N
COSMOS 2406 4.1 23:32:43 41° NE 23:32:43 41° NE 23:36:22 10° NNE
Terra 3.3 23:35:13 32° WNW 23:35:13 32° WNW 23:38:13 10° NNW
Cosmos 1092 Rocket 4.3 23:52:56 63° N 23:52:56 63° N 23:58:10 10° N
